SAS649 EKCH-EDDH

Flight info

Callsign SAS649
Flight time 0h 31m
Altitude 24000
Route NEXEN T503 MICOS/N0420F280 N850 BOGMU BOGMU3P
Aircraft A319/M-SDE3FGHIRWY/LB1

Departure

Time 2026-04-23 12:04
Airport Copenhagen Kastrup Airport (EKCH)

Arrival

Time 2026-04-23 12:36
Airport Hamburg Helmut Schmidt Airport (EDDH)
Time Latitude Longitude Altitude Speed Heading
2026-04-23 11:40 55.62730 12.65327 19 ft 0 kts 15°
2026-04-23 11:55 55.62729 12.65326 19 ft 2 kts 15°
2026-04-23 11:56 55.62704 12.65313 19 ft 4 kts 15°
2026-04-23 11:56 55.62678 12.65302 19 ft 4 kts 12°
2026-04-23 11:56 55.62654 12.65295 20 ft 1 kts
2026-04-23 11:56 55.62649 12.65294 21 ft 1 kts
2026-04-23 11:59 55.62650 12.65294 21 ft 2 kts
2026-04-23 11:59 55.62656 12.65252 20 ft 6 kts 259°
2026-04-23 11:59 55.62617 12.65175 19 ft 11 kts 199°
2026-04-23 11:59 55.62528 12.65181 19 ft 14 kts 176°
2026-04-23 12:00 55.62427 12.65188 21 ft 16 kts 177°
2026-04-23 12:00 55.62312 12.65198 22 ft 17 kts 178°
2026-04-23 12:00 55.62192 12.65161 26 ft 18 kts 214°
2026-04-23 12:00 55.62081 12.65030 22 ft 21 kts 212°
2026-04-23 12:01 55.61947 12.64877 18 ft 25 kts 213°
2026-04-23 12:01 55.61794 12.64703 22 ft 27 kts 213°
2026-04-23 12:01 55.61628 12.64514 20 ft 29 kts 212°
2026-04-23 12:01 55.61453 12.64312 18 ft 32 kts 213°
2026-04-23 12:02 55.61259 12.64088 17 ft 34 kts 213°
2026-04-23 12:02 55.61056 12.63852 19 ft 35 kts 213°
2026-04-23 12:02 55.60866 12.63636 21 ft 30 kts 213°
2026-04-23 12:02 55.60688 12.63430 22 ft 32 kts 213°
2026-04-23 12:03 55.60529 12.63218 22 ft 22 kts 197°
2026-04-23 12:03 55.60416 12.63372 27 ft 22 kts 122°
2026-04-23 12:03 55.60497 12.63599 27 ft 36 kts 41°
2026-04-23 12:03 55.60841 12.64128 30 ft 94 kts 41°
2026-04-23 12:04 55.61480 12.65111 31 ft 146 kts 40°
2026-04-23 12:04 55.62235 12.66321 619 ft 147 kts 37°
2026-04-23 12:04 55.62995 12.67510 1320 ft 150 kts 35°
2026-04-23 12:04 55.63833 12.68793 1802 ft 170 kts 34°
2026-04-23 12:05 55.64791 12.70252 2230 ft 194 kts 36°
2026-04-23 12:05 55.65889 12.71904 2744 ft 219 kts 36°
2026-04-23 12:05 55.67082 12.73828 3393 ft 245 kts 46°
2026-04-23 12:05 55.67824 12.76667 4368 ft 263 kts 70°
2026-04-23 12:06 55.68088 12.79929 5460 ft 273 kts 83°
2026-04-23 12:06 55.67986 12.83328 6524 ft 281 kts 94°
2026-04-23 12:06 55.66284 12.89611 8366 ft 304 kts 141°
2026-04-23 12:07 55.64340 12.91107 9264 ft 311 kts 174°
2026-04-23 12:07 55.62186 12.90892 10173 ft 311 kts 196°
2026-04-23 12:07 55.60070 12.89748 10654 ft 328 kts 206°
2026-04-23 12:07 55.57990 12.87890 11151 ft 340 kts 216°
2026-04-23 12:08 55.56121 12.85320 11870 ft 342 kts 228°
2026-04-23 12:08 55.54423 12.82339 12663 ft 346 kts 229°
2026-04-23 12:08 55.52718 12.79294 13431 ft 351 kts 229°
2026-04-23 12:08 55.51037 12.76223 14180 ft 355 kts 231°
2026-04-23 12:09 55.49388 12.72943 14844 ft 359 kts 233°
2026-04-23 12:09 55.47777 12.69543 15522 ft 363 kts 234°
2026-04-23 12:09 55.46172 12.66077 16195 ft 367 kts 234°
2026-04-23 12:09 55.44548 12.62571 16863 ft 372 kts 234°
2026-04-23 12:10 55.42895 12.59036 17535 ft 376 kts 234°
2026-04-23 12:10 55.41209 12.55467 18203 ft 381 kts 233°
2026-04-23 12:10 55.39501 12.51881 18818 ft 385 kts 233°
2026-04-23 12:10 55.37766 12.48267 19406 ft 389 kts 233°
2026-04-23 12:11 55.36011 12.44630 20019 ft 392 kts 233°
2026-04-23 12:11 55.34238 12.40962 20632 ft 395 kts 233°
2026-04-23 12:11 55.32449 12.37266 21233 ft 398 kts 233°
2026-04-23 12:11 55.30647 12.33543 21841 ft 401 kts 233°
2026-04-23 12:12 55.28836 12.29801 22434 ft 404 kts 233°
2026-04-23 12:12 55.27009 12.26035 23018 ft 407 kts 233°
2026-04-23 12:12 55.25165 12.22242 23596 ft 410 kts 233°
2026-04-23 12:12 55.23303 12.18417 24042 ft 413 kts 232°
2026-04-23 12:13 55.21446 12.14608 24194 ft 412 kts 232°
2026-04-23 12:13 55.19414 12.11150 24235 ft 402 kts 221°
2026-04-23 12:13 55.17186 12.08269 24239 ft 396 kts 218°
2026-04-23 12:13 55.14996 12.05479 24238 ft 394 kts 218°
2026-04-23 12:14 55.12755 12.02616 24240 ft 407 kts 218°
2026-04-23 12:14 55.10440 11.99652 24241 ft 416 kts 218°
2026-04-23 12:14 55.08095 11.96658 24242 ft 419 kts 218°
2026-04-23 12:14 55.05735 11.93656 24241 ft 419 kts 218°
2026-04-23 12:15 55.03377 11.90665 24241 ft 420 kts 218°
2026-04-23 12:15 55.01015 11.87672 24242 ft 420 kts 218°
2026-04-23 12:15 54.98652 11.84680 24249 ft 420 kts 218°
2026-04-23 12:15 54.96292 11.81692 24250 ft 420 kts 218°
2026-04-23 12:16 54.93932 11.78707 24244 ft 420 kts 217°
2026-04-23 12:16 54.91564 11.75716 24252 ft 420 kts 217°
2026-04-23 12:16 54.89200 11.72733 24254 ft 420 kts 217°
2026-04-23 12:16 54.86834 11.69755 24255 ft 420 kts 217°
2026-04-23 12:17 54.84466 11.66784 24259 ft 420 kts 217°
2026-04-23 12:17 54.82092 11.63814 24255 ft 420 kts 217°
2026-04-23 12:17 54.79723 11.60851 24256 ft 420 kts 217°
2026-04-23 12:17 54.77351 11.57882 24255 ft 420 kts 217°
2026-04-23 12:18 54.74983 11.54919 24249 ft 420 kts 217°
2026-04-23 12:18 54.72611 11.51956 24261 ft 420 kts 217°
2026-04-23 12:18 54.71043 11.50001 24261 ft 420 kts 217°
2026-04-23 12:18 54.68672 11.47050 24259 ft 420 kts 217°
2026-04-23 12:19 54.66297 11.44102 24255 ft 420 kts 217°
2026-04-23 12:19 54.63922 11.41158 24256 ft 421 kts 217°
2026-04-23 12:19 54.61573 11.38250 24264 ft 408 kts 217°
2026-04-23 12:19 54.59294 11.35436 24260 ft 398 kts 217°
2026-04-23 12:20 54.57064 11.32686 24269 ft 393 kts 217°
2026-04-23 12:20 54.54812 11.29936 23798 ft 401 kts 216°
2026-04-23 12:20 54.51748 11.26263 22850 ft 406 kts 216°
2026-04-23 12:20 54.50175 11.24398 22476 ft 405 kts 216°
2026-04-23 12:21 54.47889 11.21694 21953 ft 403 kts 216°
2026-04-23 12:21 54.45583 11.18967 21423 ft 401 kts 216°
2026-04-23 12:21 54.43292 11.16250 20906 ft 398 kts 216°
2026-04-23 12:21 54.41022 11.13552 20386 ft 395 kts 216°
2026-04-23 12:22 54.38765 11.10874 19875 ft 392 kts 216°
2026-04-23 12:22 54.36527 11.08223 19367 ft 390 kts 216°
2026-04-23 12:22 54.34304 11.05593 18864 ft 387 kts 216°
2026-04-23 12:22 54.32093 11.02978 18332 ft 384 kts 216°
2026-04-23 12:23 54.29902 11.00388 17776 ft 381 kts 216°
2026-04-23 12:23 54.27722 10.97817 17233 ft 378 kts 216°
2026-04-23 12:23 54.25562 10.95276 16686 ft 376 kts 217°
2026-04-23 12:23 54.23418 10.92758 16168 ft 372 kts 217°
2026-04-23 12:24 54.21294 10.90264 15653 ft 369 kts 217°
2026-04-23 12:24 54.19207 10.87819 15154 ft 367 kts 217°
2026-04-23 12:24 54.17113 10.85370 14652 ft 364 kts 217°
2026-04-23 12:24 54.15002 10.82907 14144 ft 362 kts 217°
2026-04-23 12:25 54.12958 10.80518 13615 ft 359 kts 217°
2026-04-23 12:25 54.10905 10.78118 13088 ft 357 kts 217°
2026-04-23 12:25 54.08861 10.75738 12562 ft 354 kts 218°
2026-04-23 12:25 54.06835 10.73380 12065 ft 351 kts 218°
2026-04-23 12:26 54.04826 10.71043 11498 ft 347 kts 218°
2026-04-23 12:26 54.02848 10.68751 11037 ft 339 kts 218°
2026-04-23 12:26 54.00918 10.66522 10616 ft 331 kts 218°
2026-04-23 12:26 53.99040 10.64357 10334 ft 319 kts 218°
2026-04-23 12:27 53.97234 10.62275 10007 ft 311 kts 218°
2026-04-23 12:27 53.95480 10.60250 9566 ft 306 kts 218°
2026-04-23 12:27 53.93726 10.58222 9075 ft 304 kts 218°
2026-04-23 12:27 53.91977 10.56199 8559 ft 303 kts 217°
2026-04-23 12:28 53.90295 10.54069 8052 ft 299 kts 227°
2026-04-23 12:28 53.88941 10.51449 7553 ft 294 kts 235°
2026-04-23 12:28 53.87640 10.48781 7123 ft 292 kts 234°
2026-04-23 12:28 53.86343 10.46156 6835 ft 288 kts 234°
2026-04-23 12:29 53.85070 10.43594 6714 ft 279 kts 234°
2026-04-23 12:29 53.83837 10.41111 6546 ft 274 kts 234°
2026-04-23 12:29 53.82617 10.38649 6210 ft 271 kts 234°
2026-04-23 12:29 53.81423 10.36235 5880 ft 266 kts 233°
2026-04-23 12:30 53.80239 10.33857 5548 ft 262 kts 233°
2026-04-23 12:30 53.79059 10.31503 5114 ft 262 kts 234°
2026-04-23 12:30 53.77898 10.29133 4662 ft 262 kts 233°
2026-04-23 12:30 53.76755 10.26783 4176 ft 263 kts 234°
2026-04-23 12:31 53.75616 10.24454 3804 ft 249 kts 235°
2026-04-23 12:31 53.74550 10.22275 3484 ft 231 kts 233°
2026-04-23 12:31 53.73563 10.20259 3178 ft 214 kts 233°
2026-04-23 12:31 53.72653 10.18401 2927 ft 196 kts 234°
2026-04-23 12:32 53.71808 10.16674 2645 ft 184 kts 235°
2026-04-23 12:32 53.71021 10.15068 2397 ft 172 kts 238°
2026-04-23 12:32 53.70280 10.13558 2177 ft 162 kts 238°
2026-04-23 12:32 53.69577 10.12125 1966 ft 151 kts 237°
2026-04-23 12:33 53.68946 10.10844 1754 ft 134 kts 240°
2026-04-23 12:33 53.68364 10.09657 1573 ft 129 kts 237°
2026-04-23 12:33 53.67803 10.08514 1402 ft 125 kts 240°
2026-04-23 12:33 53.67252 10.07390 1235 ft 123 kts 238°
2026-04-23 12:34 53.66706 10.06277 1066 ft 123 kts 238°
2026-04-23 12:34 53.66162 10.05171 897 ft 123 kts 238°
2026-04-23 12:34 53.65624 10.04079 718 ft 120 kts 239°
2026-04-23 12:34 53.65091 10.03003 580 ft 120 kts 239°
2026-04-23 12:35 53.64562 10.01928 381 ft 119 kts 237°
2026-04-23 12:35 53.64028 10.00840 230 ft 123 kts 237°
2026-04-23 12:35 53.63479 9.99726 63 ft 117 kts 238°
2026-04-23 12:35 53.63042 9.98828 43 ft 77 kts 229°
2026-04-23 12:36 53.62859 9.98518 44 ft 27 kts 204°
2026-04-23 12:36 53.62704 9.98495 42 ft 16 kts 131°
2026-04-23 12:36 53.62752 9.98676 43 ft 20 kts 50°
2026-04-23 12:36 53.62853 9.98883 43 ft 25 kts 50°
2026-04-23 12:37 53.62959 9.99098 44 ft 21 kts 50°
2026-04-23 12:37 53.63055 9.99294 45 ft 24 kts 51°
2026-04-23 12:37 53.63146 9.99515 45 ft 24 kts 52°
2026-04-23 12:37 53.63273 9.99753 45 ft 30 kts 44°
2026-04-23 12:38 53.63393 9.99989 46 ft 26 kts 50°
2026-04-23 12:38 53.63410 10.00180 46 ft 17 kts 123°
2026-04-23 12:38 53.63308 10.00237 46 ft 16 kts 175°
2026-04-23 12:38 53.63206 10.00264 46 ft 13 kts 136°
2026-04-23 12:39 53.63197 10.00376 46 ft 7 kts 84°
2026-04-23 12:39 53.63198 10.00392 46 ft 0 kts 84°